J Percy Priest Observed Data For Previous 48 Hours

Caption
Day and Hour Reservoir Elevation (behind dam)* Tailwater Elevation (below dam)* Average Hourly Discharge*
7/14/2018 1 AM CDT 490.40 388.76 130
7/14/2018 2 AM CDT 490.40 388.72 130
7/14/2018 3 AM CDT 490.40 388.65 130
7/14/2018 4 AM CDT 490.40 388.62 130
7/14/2018 5 AM CDT 490.40 388.58 130
7/14/2018 6 AM CDT 490.40 388.59 130
7/14/2018 7 AM CDT 490.40 388.61 130
7/14/2018 8 AM CDT 490.40 388.58 130
7/14/2018 9 AM CDT 490.40 388.58 130
7/14/2018 10 AM CDT 490.40 388.59 130
7/14/2018 11 AM CDT 490.40 388.59 130
7/14/2018 12 PM CDT 490.40 388.59 130
7/14/2018 1 PM CDT 490.38 388.58 130
7/14/2018 2 PM CDT 490.38 388.58 130
7/14/2018 3 PM CDT 490.38 388.58 130
7/14/2018 4 PM CDT 490.38 388.58 130
7/14/2018 5 PM CDT 490.38 388.58 130
7/14/2018 6 PM CDT 490.38 388.58 130
7/14/2018 7 PM CDT 490.38 388.59 130
7/14/2018 8 PM CDT 490.38 388.59 130
7/14/2018 9 PM CDT 490.37 388.60 130
7/14/2018 10 PM CDT 490.37 388.60 130
7/14/2018 11 PM CDT 490.37 388.60 130
7/15/2018 12 AM CDT 490.37 388.60 130
7/15/2018 1 AM CDT 490.37 388.59 130
7/15/2018 2 AM CDT 490.37 388.57 130
7/15/2018 3 AM CDT 490.37 388.59 130
7/15/2018 4 AM CDT 490.37 388.59 130
7/15/2018 5 AM CDT 490.37 388.59 130
7/15/2018 6 AM CDT 490.38 388.57 130
7/15/2018 7 AM CDT 490.39 388.59 130
7/15/2018 8 AM CDT 490.44 388.59 130
7/15/2018 9 AM CDT 490.50 388.61 130
7/15/2018 10 AM CDT 490.53 388.58 130
7/15/2018 11 AM CDT 490.60 388.60 130
7/15/2018 12 PM CDT 490.59 388.60 130
7/15/2018 1 PM CDT 490.58 388.62 130
7/15/2018 2 PM CDT 490.58 388.62 130
7/15/2018 3 PM CDT 490.58 388.62 130
7/15/2018 4 PM CDT 490.58 388.62 130
7/15/2018 5 PM CDT 490.58 388.62 130
7/15/2018 6 PM CDT 490.58 388.62 130
7/15/2018 7 PM CDT 490.69 388.60 130
7/15/2018 8 PM CDT 490.70 388.60 130
7/15/2018 9 PM CDT 490.72 388.59 130
7/15/2018 10 PM CDT 490.77 388.62 130
7/15/2018 11 PM CDT 490.79 388.59 130
7/16/2018 12 AM CDT 490.80 388.59 130

Elevations are in feet above sea level. Discharges are in cubic feet per second and are reported at the end of the hour.